x

9440910 - Toke Point, Wa (tokw1) Weather Station

2:30 - Fri 19th Dec 2014 All times are PST. -8 hours from GMT.

  • Wind
    20mph, 23mph gusts
  • Luft Temp 50°f
  • Sea Pressure 1009.4mb
  • 9440910 - Toke Point, Wa
  • 9440910 - Toke Point, Wa

More Historic Weather Station data

Upgrade to MSW Pro to gain access to the past 30 days of data for over 8000 Wavebouys and Weather Stations around the globe.

Join Pro

Comparision Forecast

View Surf forecast
   
Fr 12/19 2:30 20 23 mph 1009.4mb 50f
2:24 18 22 mph 1009.4mb 50f
2:18 17 22 mph 1009.3mb 49f
2:12 18 23 mph 1009.2mb 49f
2:06 22 25 mph 1008.9mb 49f
2:00 21 28 mph 1008.9mb 49f
1:54 22 25 mph 1008.8mb 49f
1:48 20 23 mph 1008.8mb 50f
1:42 15 18 mph 1008.9mb 49f
1:36 16 22 mph 1008.8mb 50f
1:30 17 25 mph 1008.8mb 50f
1:24 20 25 mph 1008.7mb 50f
1:18 16 18 mph 1008.7mb 50f
1:12 15 21 mph 1008.7mb 50f
1:06 15 18 mph 1008.6mb 50f
1:00 16 20 mph 1008.6mb 50f
12:54 15 17 mph 1008.6mb 50f
12:48 14 17 mph 1008.6mb 50f
12:42 10 16 mph 1008.5mb 50f
12:36 5 21 mph 1008.5mb 50f
12:30 14 18 mph 1008.5mb 49f
12:24 15 22 mph 1008.5mb 49f
12:18 15 18 mph 1008.3mb 50f
12:12 15 17 mph 1008mb 50f
12:06 13 17 mph 1008.1mb 50f
12:00 14 17 mph 1008.1mb 50f
Do 12/18 11:54 13 18 mph 1008.1mb 50f
11:48 15 17 mph 1008.1mb 50f
11:42 8 15 mph 1008.2mb 50f
11:36 15 18 mph 1008.1mb 50f
11:30 15 23 mph 1008.1mb 50f
11:24 11 16 mph 1008.1mb 50f
11:18 11 15 mph 1007.8mb 50f
11:12 14 21 mph 1007.8mb 49f
11:06 20 25 mph 1007.8mb 50f
11:00 21 26 mph 1007.9mb 50f
10:54 21 22 mph 1007.8mb 50f
10:48 11 15 mph 1007.7mb 50f
10:42 14 15 mph 1007.6mb 50f
10:36 11 14 mph 1007.5mb 50f
10:30 11 14 mph 1007.4mb 50f
10:24 10 13 mph 1007.4mb 50f
10:18 11 14 mph 1007.3mb 50f
10:12 13 14 mph 1007.2mb 50f
10:06 14 16 mph 1007.1mb 50f
10:00 14 17 mph 1007.2mb 50f
9:54 16 18 mph 1007.2mb 50f
9:48 16 18 mph 1007.2mb 50f
9:42 17 22 mph 1007.3mb 50f
9:36 18 22 mph 1007.1mb 50f
9:30 18 23 mph 1007.1mb 50f
9:24 21 24 mph 1007mb 50f
9:18 18 21 mph 1006.9mb 50f
9:12 17 18 mph 1007.1mb 50f
9:06 16 20 mph 1007mb 50f
9:00 16 20 mph 1006.9mb 50f
8:54 17 18 mph 1007mb 50f
8:48 16 20 mph 1006.7mb 50f
8:42 16 18 mph 1006.7mb 50f
8:36 16 18 mph 1006.9mb 49f
8:30 16 18 mph 1006.6mb 50f
8:24 14 17 mph 1006.7mb 50f
8:18 14 16 mph 1006.6mb 50f
8:12 14 16 mph 1006.7mb 49f
8:06 10 13 mph 1006.3mb 50f
8:00 10 14 mph 1006.5mb 50f
7:54 10 14 mph 1006.5mb 50f
7:48 8 11 mph 1006.3mb 50f
7:42 6 8 mph 1006mb 50f
7:36 6 9 mph 1005.9mb 50f
7:30 5 10 mph 1005.9mb 50f
7:24 7 15 mph 1005.8mb 50f
7:18 9 20 mph 1005.9mb 50f
7:12 15 21 mph 1005.8mb 50f
7:06 13 17 mph 1005.6mb 49f
7:00 15 20 mph 1005.6mb 49f
6:54 15 18 mph 1005.7mb 50f
6:48 16 20 mph 1005.2mb 50f
6:42 17 21 mph 1004.8mb 50f
6:36 18 21 mph 1004.8mb 50f
6:30 15 20 mph 1004.8mb 50f
6:24 15 18 mph 1004.9mb 50f
6:18 17 22 mph 1004.8mb 50f
6:12 20 22 mph 1004.9mb 51f
6:06 17 20 mph 1004.9mb 50f
6:00 16 20 mph 1004.9mb 50f
5:54 18 21 mph 1005mb 50f
5:48 15 21 mph 1005.4mb 50f
5:42 14 20 mph 1005.5mb 49f
5:30 15 17 mph 1005.5mb 49f
5:24 13 17 mph 1005.5mb 49f
5:18 15 18 mph 1005.7mb 49f
5:12 18 22 mph 1005.8mb 49f
5:06 17 22 mph 1005.8mb 49f
5:00 16 18 mph 1005.8mb 49f
4:54 17 21 mph 1005.8mb 49f
4:48 17 20 mph 1005.8mb 49f
4:42 15 20 mph 1005.9mb 49f
4:36 16 20 mph 1006mb 49f
4:30 17 20 mph 1006.1mb 49f
4:24 18 25 mph 1006.3mb 49f
4:18 18 23 mph 1006.3mb 49f
4:12 20 22 mph 1006.3mb 50f
4:06 16 21 mph 1006.3mb 50f
4:00 18 23 mph 1006.2mb 50f
3:54 18 22 mph 1006.2mb 50f
3:48 21 26 mph 1006.4mb 50f
3:42 18 25 mph 1006.5mb 50f
3:36 18 23 mph 1006.5mb 50f
3:30 18 24 mph 1006.8mb 50f
3:24 16 25 mph 1006.6mb 50f
3:18 18 21 mph 1006.7mb 50f
3:12 15 22 mph 1006.7mb 50f
3:06 20 23 mph 1006.8mb 51f
3:00 18 26 mph 1006.7mb 51f
2:54 20 24 mph 1006.7mb 51f
2:48 20 28 mph 1006.8mb 51f
2:42 17 22 mph 1006.8mb 51f
2:36 18 23 mph 1006.9mb 51f
2:30 18 24 mph 1007mb 51f
2:24 22 25 mph 1007mb 52f
2:18 18 23 mph 1007.3mb 52f
2:12 17 22 mph 1007.3mb 52f
2:06 17 23 mph 1007.5mb 52f
2:00 20 24 mph 1007.5mb 52f
1:54 18 25 mph 1007.6mb 52f
1:48 18 24 mph 1007.7mb 52f
1:42 20 23 mph 1007.8mb 53f
1:36 20 23 mph 1007.8mb 52f
1:30 17 25 mph 1007.9mb 52f
1:24 16 22 mph 1008.1mb 52f
1:18 16 18 mph 1008.1mb 52f
1:12 16 21 mph 1008.3mb 51f
1:06 17 21 mph 1008.5mb 51f
1:00 17 21 mph 1008.6mb 51f
12:54 18 22 mph 1008.7mb 51f
12:48 18 26 mph 1008.8mb 51f
12:42 17 23 mph 1008.9mb 51f
12:36 18 22 mph 1009mb 51f
12:30 17 20 mph 1009.1mb 51f
12:24 14 17 mph 1009mb 51f
12:18 15 21 mph 1008.9mb 51f
12:12 16 18 mph 1008.9mb 51f
12:06 15 18 mph 1009mb 51f
12:00 14 18 mph 1009.1mb 51f
11:54 15 18 mph 1009.2mb 51f
11:42 13 22 mph 1009.3mb 50f
11:36 13 14 mph 1009.3mb 49f
11:30 13 14 mph 1009.4mb 49f
11:24 10 14 mph 1009.5mb 49f
11:18 11 14 mph 1009.6mb 49f
11:12 13 15 mph 1009.6mb 49f
11:06 13 14 mph 1009.8mb 49f
11:00 13 14 mph 1010mb 48f
10:54 13 14 mph 1010.1mb 48f
10:48 13 14 mph 1010.2mb 48f
10:42 13 14 mph 1010.3mb 48f
10:36 13 14 mph 1010.4mb 48f
10:30 13 14 mph 1010.5mb 48f
10:24 13 14 mph 1010.5mb 48f
10:18 13 14 mph 1010.6mb 48f
10:06 13 14 mph 1010.9mb 48f
10:00 13 14 mph 1010.9mb 48f
9:54 11 14 mph 1011mb 47f
9:48 13 14 mph 1011mb 47f
9:42 13 14 mph 1010.9mb 47f
9:36 13 14 mph 1011mb 47f
9:30 11 13 mph 1011.2mb 47f
9:24 11 14 mph 1011.2mb 47f
9:18 14 16 mph 1011.2mb 47f
9:12 15 16 mph 1011.1mb 47f
9:06 13 15 mph 1011.3mb 47f
9:00 13 15 mph 1011.4mb 48f
8:54 14 16 mph 1011.3mb 47f
8:48 13 16 mph 1011.3mb 47f
8:42 14 16 mph 1011.4mb 47f
8:36 14 16 mph 1011.4mb 47f
8:30 14 15 mph 1011.4mb 47f
8:24 13 15 mph 1011.5mb 47f
8:18 14 16 mph 1011.4mb 47f
8:12 14 15 mph 1011.4mb 47f
8:06 14 16 mph 1011.5mb 47f
8:00 13 15 mph 1011.5mb 47f
7:54 13 15 mph 1011.6mb 47f
7:48 11 14 mph 1011.8mb 47f
7:42 11 14 mph 1011.9mb 47f
7:36 11 14 mph 1012mb 47f
7:30 11 13 mph 1012mb 47f
7:24 10 11 mph 1012.2mb 47f
7:18 11 13 mph 1012.3mb 47f
7:12 11 13 mph 1012.3mb 47f
7:06 11 13 mph 1012.2mb 46f
7:00 10 13 mph 1012.2mb 46f
6:54 10 13 mph 1012.3mb 46f
6:48 11 13 mph 1012.4mb 46f
6:42 10 11 mph 1012.5mb 46f
6:36 10 11 mph 1012.6mb 46f
6:30 9 10 mph 1012.9mb 47f
6:24 10 13 mph 1012.8mb 47f
6:18 11 13 mph 1012.6mb 47f
6:12 9 10 mph 1012.6mb 47f
6:06 9 10 mph 1012.6mb 47f
6:00 9 10 mph 1012.5mb 47f
5:54 9 10 mph 1012.5mb 47f
5:48 9 10 mph 1012.6mb 47f
5:42 9 10 mph 1012.6mb 47f
5:30 8 10 mph 1012.6mb 47f
5:24 8 9 mph 1012.5mb 47f
5:18 9 10 mph 1012.5mb 47f
5:12 10 11 mph 1012.5mb 47f
5:06 9 10 mph 1012.5mb 47f
5:00 9 10 mph 1012.6mb 47f
4:54 9 10 mph 1012.7mb 47f
4:48 10 11 mph 1012.7mb 46f
4:42 11 13 mph 1012.8mb 46f
4:36 10 11 mph 1012.8mb 47f
4:30 10 11 mph 1012.8mb 47f
4:24 9 11 mph 1012.9mb 47f
4:18 9 13 mph 1012.9mb 47f
4:12 9 13 mph 1013mb 47f
4:06 11 14 mph 1013mb 47f
4:00 6 9 mph 1013.1mb 47f
3:54 7 8 mph 1013.2mb 47f
3:48 5 6 mph 1013.3mb 47f
3:42 5 7 mph 1013.4mb 47f
3:36 5 6 mph 1013.4mb 47f
3:30 6 7 mph 1013.5mb 47f
3:24 6 7 mph 1013.5mb 47f
3:18 6 7 mph 1013.4mb 47f
3:12 5 7 mph 1013.3mb 47f
3:06 6 8 mph 1013.3mb 47f
3:00 7 9 mph 1013.3mb 47f
2:54 7 9 mph 1013.4mb 47f
2:48 7 8 mph 1013.5mb 47f
2:42 8 10 mph 1013.5mb 47f
2:36 9 11 mph 1013.5mb 48f
2:30 10 13 mph 1013.5mb 48f
2:24 10 13 mph 1013.4mb 48f
2:18 10 13 mph 1013.4mb 48f
2:12 10 14 mph 1013.3mb 48f
2:06 10 13 mph 1013.2mb 48f
2:00 10 14 mph 1013.2mb 48f
1:54 11 14 mph 1013.2mb 48f
1:48 14 16 mph 1013.1mb 48f
1:42 11 15 mph 1013.1mb 48f
1:36 11 14 mph 1013.2mb 48f
1:30 13 14 mph 1013.1mb 48f
1:24 11 14 mph 1013mb 48f
1:18 11 14 mph 1013.1mb 48f
1:12 11 14 mph 1013.1mb 48f
1:06 11 14 mph 1013.2mb 48f
1:00 13 15 mph 1013.2mb 47f
12:54 10 14 mph 1013.2mb 48f
12:48 13 14 mph 1013.2mb 47f
12:42 13 15 mph 1013.2mb 47f
12:36 11 13 mph 1013.2mb 48f
12:30 11 14 mph 1013.3mb 48f
12:24 10 13 mph 1013.3mb 47f
12:18 10 11 mph 1013.3mb 47f
12:12 9 10 mph 1013.3mb 47f
12:06 9 11 mph 1013.3mb 47f
12:00 8 9 mph 1013.3mb 47f
Mi 12/17 11:54 8 9 mph 1013.4mb 47f
11:48 8 10 mph 1013.5mb 47f
11:42 8 9 mph 1013.5mb 47f
11:36 6 8 mph 1013.4mb 47f
11:30 6 8 mph 1013.4mb 47f
11:24 7 9 mph 1013.4mb 47f
11:18 8 10 mph 1013.4mb 47f
11:12 7 9 mph 1013.4mb 47f
11:06 8 9 mph 1013.3mb 47f
11:00 7 8 mph 1013.3mb 47f
10:54 7 8 mph 1013.3mb 47f
10:48 7 8 mph 1013.4mb 47f
10:42 7 8 mph 1013.4mb 47f
10:36 7 8 mph 1013.3mb 46f
10:30 6 8 mph 1013.3mb 46f
10:24 6 7 mph 1013.2mb 46f
10:18 6 8 mph 1013.1mb 46f
10:12 7 9 mph 1013.1mb 46f
10:06 6 8 mph 1013.1mb 46f
10:00 6 9 mph 1013.1mb 46f
9:54 7 8 mph 1013.1mb 46f
9:48 8 9 mph 1013.1mb 46f
9:42 9 10 mph 1013mb 46f
9:36 9 10 mph 1013mb 46f
9:30 9 10 mph 1013mb 46f
9:24 9 10 mph 1013mb 46f
9:18 9 10 mph 1013mb 46f
9:12 7 10 mph 1013mb 46f
9:06 8 9 mph 1013mb 46f
9:00 6 7 mph 1013.1mb 46f
8:54 6 8 mph 1013.1mb 46f
8:48 8 9 mph 1013mb 47f
8:42 8 9 mph 1012.9mb 47f
8:36 9 10 mph 1012.8mb 47f
8:30 9 10 mph 1012.8mb 47f
8:24 8 10 mph 1012.8mb 47f
8:18 7 8 mph 1012.8mb 47f
8:12 7 8 mph 1012.8mb 47f
8:06 6
mph
1012.7mb 47f
8:00 5 6 mph 1012.6mb 47f
7:54 5
mph
1012.6mb 47f
7:48 5
mph
1012.5mb 47f
7:42 5 6 mph 1012.5mb 47f
7:36 5 6 mph 1012.5mb 47f
7:30 5 6 mph 1012.5mb 47f
7:24 3 5 mph 1012.5mb 46f
7:18  -  1 mph 1012.4mb 47f
7:12  -  1 mph 1012.4mb 46f
7:06  -  2 mph 1012.4mb 47f
7:00 2
mph
1012.4mb 46f
6:54 2
mph
1012.3mb 47f
6:48 2
mph
1012.3mb 47f
6:42 2 3 mph 1012.3mb 47f
6:36 2 3 mph 1012.2mb 47f
6:30 2 3 mph 1012.2mb 47f
6:24 2 3 mph 1012.1mb 47f
6:18 2
mph
1012mb 47f
6:12 2 3 mph 1011.9mb 47f
6:06 2 3 mph 1011.9mb 47f
6:00 3
mph
1011.8mb 47f
5:54 3
mph
1011.7mb 47f
5:48 2
mph
1011.7mb 47f
5:42 2
mph
1011.7mb 47f
5:36 2
mph
1011.6mb 47f
5:30 2 3 mph 1011.6mb 47f
5:24 3
mph
1011.6mb 47f
5:18 3 5 mph 1011.5mb 47f
5:12 5
mph
1011.6mb 47f
5:06 3 5 mph 1011.5mb 48f
5:00 3
mph
1011.3mb 48f
4:54 3
mph
1011.2mb 47f
4:48 3
mph
1011.2mb 48f
4:42 2 3 mph 1011.1mb 48f
4:36 3
mph
1011.1mb 48f
4:30 2 3 mph 1011mb 48f
4:24 3
mph
1010.9mb 48f
4:18 3 5 mph 1010.9mb 48f
4:12 3
mph
1010.9mb 48f
4:00 3
mph
1010.8mb 48f
3:54 3 5 mph 1010.7mb 48f
3:48 3
mph
1010.7mb 48f
3:42 3 5 mph 1010.6mb 48f
3:36 5 6 mph 1010.4mb 48f
3:30 5 6 mph 1010.3mb 48f
3:24 5 6 mph 1010.3mb 48f
3:18 5
mph
1010.3mb 48f
3:12 5
mph
1010.3mb 48f
3:06 5 6 mph 1010.2mb 48f
3:00 6
mph
1010.1mb 48f
2:54 6
mph
1010.1mb 48f
2:48 6
mph
1010.1mb 47f
2:42 5 6 mph 1010.1mb 48f
2:36 5 6 mph 1010mb 47f
2:30 6
mph
1010mb 48f
2:24 5 6 mph 1009.9mb 48f
2:18 6
mph
1009.8mb 48f
2:12 5 6 mph 1009.8mb 47f
2:06 6 7 mph 1009.8mb 47f
2:00 6 7 mph 1009.8mb 47f
1:54 6 7 mph 1009.8mb 47f
1:48 7 8 mph 1009.8mb 47f
1:42 7 8 mph 1009.8mb 47f
1:36 8
mph
1009.9mb 46f
1:30 5 6 mph 1010mb 47f
1:18 6
mph
1010.1mb 47f
1:12 5 6 mph 1010.1mb 47f
1:00 5 6 mph 1010.2mb 46f
12:54 5 6 mph 1010.1mb 46f
12:48 5 6 mph 1010.1mb 46f
12:42 5 6 mph 1010mb 46f
12:36 3 6 mph 1010mb 46f
12:30 5 6 mph 1010mb 46f
12:24 5 6 mph 1010mb 46f
12:12 5 6 mph 1010.1mb 46f
12:00 5 6 mph 1010.1mb 46f
11:54 6
mph
1010.1mb 46f
11:48 5 6 mph 1010.2mb 46f
11:42 5
mph
1010.3mb 46f
11:36 3 5 mph 1010.3mb 46f
11:30 5
mph
1010.3mb 46f
11:24 5
mph
1010.3mb 46f
11:12 3
mph
1010.3mb 46f
11:06 2 3 mph 1010.3mb 46f
11:00 2 5 mph 1010.3mb 46f
10:54 3 5 mph 1010.3mb 46f
10:48 3 5 mph 1010.3mb 46f
10:42 2 5 mph 1010.3mb 46f
10:36 3 5 mph 1010.2mb 46f
10:30 3 6 mph 1010.2mb 46f
10:24 5 6 mph 1010.2mb 46f
10:18 5 6 mph 1010.1mb 46f
10:12 5 6 mph 1010mb 46f
10:06 6 7 mph 1009.8mb 46f
10:00 6 7 mph 1009.8mb 46f
9:54 6 7 mph 1009.6mb 46f
9:48 6 7 mph 1009.5mb 45f
9:42 6 8 mph 1009.5mb 45f
9:36 7 8 mph 1009.4mb 45f
9:30 7 8 mph 1009.4mb 45f
9:24 8 9 mph 1009.3mb 45f
9:18 8 9 mph 1009.2mb -
9:12 8 9 mph 1009.1mb -
9:06 9
mph
1009mb -
9:00 8 9 mph 1009mb 45f
8:54 8 9 mph 1009mb 45f
8:48 7 8 mph 1008.9mb 45f
8:42 7 8 mph 1009mb 45f
8:36 7 8 mph 1009mb 45f
8:30 6 7 mph 1009mb 45f
8:24 6 7 mph 1009mb 45f
8:18 6 7 mph 1008.9mb 45f
8:12 6 7 mph 1008.9mb 45f
8:06 6 7 mph 1009mb 45f
8:00 6 7 mph 1008.9mb 45f
7:54 7 8 mph 1008.9mb 45f
7:48 7 8 mph 1008.8mb 46f
7:42 7 9 mph 1008.8mb 45f
7:36 6 7 mph 1008.8mb 45f
7:30 6 7 mph 1008.9mb 46f
7:24 6 7 mph 1008.8mb 46f
7:12 7 8 mph 1008.8mb 45f
7:06 6 7 mph 1008.8mb 45f
7:00 6 8 mph 1008.8mb 45f
6:54 6 8 mph 1008.7mb 45f
6:48 6 8 mph 1008.7mb 45f
6:42 6 8 mph 1008.7mb 45f
6:36 7 8 mph 1008.7mb 45f
6:30 7 9 mph 1008.6mb 45f
6:24 8 9 mph 1008.6mb 45f
6:18 8 10 mph 1008.6mb 45f
6:12 8 9 mph 1008.6mb 45f
6:06 8 10 mph 1008.5mb 45f
6:00 8 9 mph 1008.5mb 45f
5:54 8 10 mph 1008.4mb 45f
5:48 8 9 mph 1008.4mb 45f
5:42 7 9 mph 1008.4mb 45f
5:36 8 9 mph 1008.3mb 45f
5:30 9 10 mph 1008.3mb 45f
5:24 8 9 mph 1008.3mb 45f
5:18 8 9 mph 1008.2mb 45f
5:12 8 9 mph 1008.2mb 45f
5:06 8 9 mph 1008.1mb 46f
5:00 7 9 mph 1008.2mb 46f
4:54 8 9 mph 1008.2mb 46f
4:48 7 9 mph 1008.2mb 46f
4:42 7 9 mph 1008.3mb 46f
4:36 7 8 mph 1008.3mb 46f
4:30 7 8 mph 1008.3mb 46f
4:24 7
mph
1008.3mb 46f
4:18 5 6 mph 1008.3mb 46f
4:12 6 7 mph 1008.2mb 46f
4:06 7 8 mph 1008.1mb 45f
4:00 7 8 mph 1008.2mb 45f
3:54 8
mph
1008.2mb 45f
3:48 7 8 mph 1008.3mb 45f
3:42 6 7 mph 1008.3mb 45f
3:36 7 8 mph 1008.4mb 45f
3:30 7 10 mph 1008.4mb -
3:24 9 10 mph 1008.4mb -
3:18 9 10 mph 1008.4mb -
3:12 8 9 mph 1008.4mb 46f
3:06 7 9 mph 1008.4mb 46f
2:54 8 9 mph 1008.4mb 46f
2:48 8 9 mph 1008.4mb 46f
2:42 6 7 mph 1008.5mb 46f
2:36 6 7 mph 1008.5mb 46f
2:30 7 8 mph 1008.6mb 45f
2:24 6 7 mph 1008.7mb 46f
2:18 6 7 mph 1008.7mb 46f
2:12 6 7 mph 1008.6mb 46f
2:06 5 6 mph 1008.7mb 45f
2:00 6 7 mph 1008.6mb 45f
1:54 6 7 mph 1008.7mb 45f
1:48 7
mph
1008.7mb 45f
1:42 7
mph
1008.7mb 45f
1:36 6 7 mph 1008.8mb 46f
1:30 6 7 mph 1008.8mb 46f
1:24 6 7 mph 1008.9mb 45f
1:12 6 7 mph 1009mb 46f
12:54 7 8 mph 1008.9mb 46f
12:42 7 8 mph 1008.9mb 46f
12:36 6 7 mph 1008.9mb 46f
12:30 7 8 mph 1008.9mb 46f
12:24 6 7 mph 1009mb 46f
12:12 6 7 mph 1009mb 46f
12:06 6 7 mph 1009mb 46f
12:00 6 7 mph 1009mb 46f
Di 12/16 11:54 7 8 mph 1008.9mb 46f
11:48 8
mph
1008.9mb 47f
11:42 8 9 mph 1008.9mb 47f
11:36 9 10 mph 1008.9mb 47f
11:30 9
mph
1008.9mb 46f
11:24 7 9 mph 1009.1mb 46f
11:18 8 10 mph 1009.1mb 46f
11:12 9 10 mph 1009.1mb 46f
11:06 9 11 mph 1009mb 46f
11:00 9 11 mph 1009mb 46f
10:54 10 13 mph 1009mb 47f
10:48 11 13 mph 1009.1mb 47f
10:42 11 13 mph 1009.1mb 47f
10:36 9 11 mph 1009.2mb 47f
10:30 10 13 mph 1009.2mb 47f
10:24 10 11 mph 1009.1mb 47f
10:18 10 13 mph 1009mb 47f
10:12 10 13 mph 1009mb 47f
10:06 10 13 mph 1009mb 47f
10:00 10 11 mph 1009mb 47f
9:54 10 13 mph 1009.1mb 47f
9:48 10 13 mph 1009.1mb 47f
9:42 10 11 mph 1009.1mb 47f
9:36 10 11 mph 1009.1mb 47f
9:30 9 10 mph 1009.1mb 47f
9:24 7 10 mph 1009mb 47f
9:18 8 10 mph 1009mb 47f
9:12 8 10 mph 1008.9mb 47f
9:06 9 13 mph 1008.9mb 47f
9:00 11 14 mph 1008.9mb 47f
8:54 11 14 mph 1008.9mb 47f
8:48 11 14 mph 1008.9mb 48f
8:42 10 14 mph 1008.9mb 48f
8:36 8 9 mph 1009mb 47f
8:30 9 10 mph 1009mb 47f
8:24 8 9 mph 1009mb 47f
8:18 8 9 mph 1009mb 47f
8:12 7 8 mph 1009mb 47f
8:06 7 8 mph 1009mb 47f
8:00 8 9 mph 1009mb 47f
7:54 7 8 mph 1009.1mb 47f
7:48 7 8 mph 1009.1mb 47f
7:42 7 8 mph 1009mb 48f
7:36 7 8 mph 1009mb 48f
7:30 8 9 mph 1009.1mb 48f
7:24 8 9 mph 1009.1mb 48f
7:18 8 9 mph 1009.1mb 48f
7:12 8 9 mph 1009.1mb 48f
7:06 8 9 mph 1009.1mb 48f
7:00 9 10 mph 1009.1mb 48f
6:54 8 9 mph 1009mb 48f
6:48 8 10 mph 1009.1mb 48f
6:42 8 9 mph 1009.1mb 48f
6:36 8 9 mph 1009.1mb 48f
6:30 8 10 mph 1009.1mb 48f
6:24 7 9 mph 1009.1mb 49f
6:18 7 9 mph 1009.2mb 49f
6:12 8 10 mph 1009.2mb 49f
6:06 8 9 mph 1009.1mb 49f
6:00 8 10 mph 1009.1mb 49f
5:54 9 11 mph 1009.1mb 49f
5:48 9 11 mph 1009.1mb 49f
5:42 9 10 mph 1009.1mb 49f
5:36 9 10 mph 1009.1mb 49f
5:30 8 10 mph 1009.1mb 49f
5:24 8 9 mph 1009mb 49f
5:18 7 9 mph 1009mb 49f
5:12 7 8 mph 1009mb 49f
5:06 8 9 mph 1009mb 49f
4:54 8 9 mph 1008.9mb 49f
4:48 8 9 mph 1009mb 50f
4:42 7 9 mph 1009mb 49f
4:36 8 9 mph 1008.9mb 50f
4:30 8
mph
1008.9mb 50f
4:24 7 8 mph 1008.9mb 50f
4:18 8 9 mph 1009mb 50f
4:12 8 11 mph 1008.9mb 50f
4:06 10 13 mph 1008.9mb 50f
4:00 11 13 mph 1008.9mb 50f
3:54 11 13 mph 1008.8mb 50f
3:48 10 13 mph 1008.8mb 50f
3:42 10 11 mph 1008.7mb 50f
3:36 7 8 mph 1008.8mb 50f
3:30 7 9 mph 1008.8mb 50f
3:24 8 9 mph 1008.8mb 50f
3:18 8
mph
1008.9mb 50f
3:12 8 9 mph 1008.9mb 50f
3:06 9 10 mph 1008.9mb 50f
2:54 8 9 mph 1008.8mb 50f
2:48 7 9 mph 1008.8mb 50f
2:42 8 9 mph 1008.7mb 50f
2:36 8 9 mph 1008.7mb 50f
2:30 9 10 mph 1008.7mb 50f
2:24 9 10 mph 1008.7mb 50f
2:18 8 9 mph 1008.7mb 50f
2:12 9 10 mph 1008.8mb 50f
2:06 10 11 mph 1008.8mb 50f
2:00 9 10 mph 1008.8mb 50f
1:54 9 10 mph 1008.8mb 49f
1:48 10 11 mph 1008.8mb 49f
1:42 10 11 mph 1008.8mb 49f
1:36 11 13 mph 1008.8mb 49f
1:30 11 13 mph 1008.7mb 49f
1:24 11 13 mph 1008.7mb 49f
1:18 9 11 mph 1008.8mb -
1:12 10 11 mph 1008.9mb 49f
1:06 10
mph
1008.9mb 49f
1:00 10
mph
1009mb 49f
12:54 9 10 mph 1009mb 49f
12:48 8 10 mph 1009mb 48f
12:42 9 10 mph 1009.1mb 48f
12:36 10 11 mph 1009.1mb 48f
12:30 10 11 mph 1009.1mb 48f
12:24 9 11 mph 1009.2mb 48f
12:18 10 11 mph 1009.2mb 48f
12:12 10 11 mph 1009.3mb 48f
12:06 10 11 mph 1009.2mb 47f
12:00 10 13 mph 1009.3mb 47f
11:54 10 11 mph 1009.3mb 47f
11:48 10 11 mph 1009.3mb 47f
11:42 11
mph
1009.3mb 47f
11:36 10 13 mph 1009.3mb 47f
11:24 11 13 mph 1009.5mb 47f
11:18 11 13 mph 1009.5mb 46f
11:12 11 13 mph 1009.5mb 46f
11:06 10 14 mph 1009.4mb 47f
11:00 11 13 mph 1009.4mb 46f
10:54 11 15 mph 1009.4mb 46f
10:48 11 14 mph 1009.3mb 46f
10:42 14 15 mph 1009.3mb 46f
10:36 14 16 mph 1009.4mb 46f
10:30 13 15 mph 1009.4mb 46f
10:24 14 15 mph 1009.4mb 46f
10:18 14 15 mph 1009.4mb 46f
10:12 14 15 mph 1009.4mb 46f
10:06 13 14 mph 1009.4mb 46f
10:00 13 14 mph 1009.4mb 46f
9:54 13 14 mph 1009.4mb 46f
9:48 13 14 mph 1009.4mb 46f
9:42 11 14 mph 1009.4mb 46f
9:36 11 15 mph 1009.4mb 46f
9:30 13 14 mph 1009.3mb 46f
9:24 11 14 mph 1009.2mb 46f
9:18 13 15 mph 1009.2mb 46f
9:12 13 14 mph 1009.1mb 46f
9:06 13 15 mph 1009mb 46f
9:00 11 14 mph 1009.1mb 46f
8:54 13 14 mph 1009.1mb 45f
8:48 11 14 mph 1009.1mb 45f
8:42 14
mph
1009.1mb 45f
8:36 13 14 mph 1009.1mb 45f
8:30 11 14 mph 1009mb 45f
8:24 11 14 mph 1009mb 45f
8:18 13 14 mph 1008.9mb 45f
8:12 13 14 mph 1009mb 45f
8:06 13 14 mph 1008.9mb 45f
8:00 13 14 mph 1008.9mb 46f
7:54 13 15 mph 1008.9mb 46f
7:48 14 16 mph 1008.9mb 46f
7:42 14 16 mph 1008.8mb 46f
7:36 14 16 mph 1008.8mb 46f
7:30 14 16 mph 1008.7mb 46f
7:24 15 17 mph 1008.7mb 46f
7:18 14 15 mph 1008.7mb 47f
7:12 13 15 mph 1008.6mb 47f
7:06 14 15 mph 1008.6mb 47f
7:00 13 15 mph 1008.5mb 47f
6:54 14 15 mph 1008.5mb 47f
6:48 14 15 mph 1008.5mb 47f
6:42 14 15 mph 1008.5mb 46f
6:36 13 15 mph 1008.5mb 46f
6:30 13 15 mph 1008.5mb 46f
6:24 13 14 mph 1008.4mb 46f
6:18 13 14 mph 1008.5mb 46f
6:12 13 15 mph 1008.4mb 46f
6:06 13 14 mph 1008.4mb 46f
6:00 13 15 mph 1008.4mb 46f
5:54 11 13 mph 1008.4mb 46f
5:48 11 13 mph 1008.3mb 46f
5:42 11 13 mph 1008.3mb 46f
5:36 11 13 mph 1008.3mb 46f
5:30 13 14 mph 1008.3mb 46f
5:24 11 14 mph 1008.3mb 46f
5:18 11 14 mph 1008.2mb 45f
5:12 13 14 mph 1008.2mb 45f
5:06 13 14 mph 1008.2mb 45f
5:00 13 14 mph 1008.3mb 45f
4:54 13 14 mph 1008.3mb 46f
4:48 14
mph
1008.3mb 46f
4:42 14 15 mph 1008.3mb 46f
4:36 13 15 mph 1008.3mb 47f
4:30 14 15 mph 1008.3mb 47f
4:24 14 16 mph 1008.2mb 47f
4:18 11 13 mph 1008.3mb 47f
4:12 11 15 mph 1008.3mb 47f
4:06 11 14 mph 1008.3mb 47f
4:00 11 14 mph 1008.3mb 47f
3:54 11 13 mph 1008.4mb 47f
3:48 11 13 mph 1008.4mb 47f
3:42 10 13 mph 1008.4mb 47f
3:36 10 13 mph 1008.4mb 47f
3:30 11 13 mph 1008.4mb 46f
3:24 11 14 mph 1008.4mb 46f
3:18 11 13 mph 1008.4mb 47f
3:12 11 13 mph 1008.4mb 47f
3:06 11 14 mph 1008.4mb 46f
3:00 11 14 mph 1008.5mb 46f
2:54 11 13 mph 1008.5mb 47f
2:48 10 13 mph 1008.5mb 47f
2:42 11 14 mph 1008.5mb 47f
2:36 11 14 mph 1008.6mb 47f
2:30 13 15 mph 1008.6mb 47f
2:24 13 15 mph 1008.6mb 47f
2:18 13 14 mph 1008.6mb 47f
2:06 11 13 mph 1008.5mb 47f
1:54 10 14 mph 1008.6mb 47f
1:48 11 14 mph 1008.6mb 47f
1:42 13 15 mph 1008.6mb 48f
1:36 13 14 mph 1008.6mb 48f
1:30 10 13 mph 1008.6mb 48f
1:24 11 14 mph 1008.5mb 48f
1:18 11 13 mph 1008.5mb 48f
1:12 10 13 mph 1008.6mb 48f
1:00 10 14 mph 1008.6mb 48f
12:54 11 13 mph 1008.6mb 48f
12:48 11 13 mph 1008.6mb 48f
12:42 11 14 mph 1008.6mb 48f
12:36 11 13 mph 1008.7mb 48f
12:30 10 11 mph 1008.8mb 48f
12:24 9 13 mph 1008.8mb 48f
12:18 9 11 mph 1008.8mb 48f
12:12 9 11 mph 1008.8mb 48f
12:06 8 10 mph 1008.8mb 48f
12:00 10 11 mph 1008.8mb 48f
Mo 12/15 11:54 10 11 mph 1008.9mb 48f
11:48 10 11 mph 1008.9mb 48f
11:42 10 11 mph 1008.9mb 48f
11:36 9 11 mph 1008.9mb 48f
11:30 9 10 mph 1008.9mb 49f
11:24 9 10 mph 1008.9mb 49f
11:18 8 10 mph 1008.9mb 49f
11:12 7 10 mph 1008.9mb 49f
11:06 8 10 mph 1008.9mb 49f
11:00 9 10 mph 1008.9mb 49f
10:54 8 9 mph 1008.9mb 49f
10:48 8 10 mph 1008.9mb 49f
10:42 8 10 mph 1008.9mb 49f
10:36 9 10 mph 1008.9mb 49f
10:30 9 11 mph 1008.8mb 49f
10:24 9 11 mph 1008.8mb 49f
10:18 10 13 mph 1008.8mb 49f
10:12 9 11 mph 1008.8mb 49f
10:06 10 11 mph 1008.8mb 49f
10:00 9 11 mph 1008.8mb 49f
9:54 10 11 mph 1008.9mb 48f
9:48 9 10 mph 1008.9mb 48f
9:42 7 8 mph 1009mb 48f
9:36 7
mph
1009mb 48f
9:30 6 7 mph 1009mb 48f
9:24 6 7 mph 1008.9mb 48f
9:18 7 8 mph 1008.9mb 48f
9:12 7 9 mph 1009mb 48f
9:06 9 10 mph 1009.1mb 48f
9:00 9 10 mph 1009.1mb 48f
8:54 9 11 mph 1009.1mb 48f
8:48 9 10 mph 1009.1mb 48f
8:42 9 10 mph 1009.1mb 48f
8:36 9 10 mph 1009.1mb 48f
8:30 9 10 mph 1009.1mb 48f
8:24 10 11 mph 1009.2mb 48f
8:18 10 13 mph 1009.1mb 48f
8:12 10 13 mph 1009.1mb 48f
8:06 10 14 mph 1009.1mb 48f
8:00 11 14 mph 1009.1mb 48f
7:54 9 10 mph 1009.1mb 48f
7:48 8 9 mph 1009.1mb 48f
7:42 9 10 mph 1009mb 48f
7:36 9
mph
1009.1mb 48f
7:30 8 10 mph 1009mb 48f
7:24 10 11 mph 1009mb 48f
7:12 10 13 mph 1009mb 48f
7:06 9 10 mph 1009.1mb 48f
7:00 8 10 mph 1009.1mb 48f
6:54 9 10 mph 1009.2mb 48f
6:48 9 10 mph 1009.2mb 48f
6:42 8 9 mph 1009.2mb 48f
6:36 7 8 mph 1009.2mb 48f
6:30 7 8 mph 1009.2mb 47f
6:24 7
mph
1009.2mb 47f
6:18 6 7 mph 1009.2mb 47f
6:12 5 6 mph 1009.2mb 47f
6:06 5 6 mph 1009.2mb 47f
6:00 3 6 mph 1009.2mb 47f
5:54 6 7 mph 1009.2mb 47f
5:48 5 6 mph 1009.3mb 47f
5:42 5 6 mph 1009.3mb 47f
5:36 6 7 mph 1009.3mb 47f
5:30 6 8 mph 1009.3mb 47f
5:24 7 8 mph 1009.4mb 48f
5:18 6 7 mph 1009.5mb 48f
5:12 6 9 mph 1009.5mb 48f
5:06 7 8 mph 1009.5mb 48f
4:54 7 8 mph 1009.5mb 48f
4:48 7 8 mph 1009.7mb 48f
4:42 8 9 mph 1009.7mb 48f
4:36 9 13 mph 1009.8mb 48f
4:30 9 11 mph 1009.8mb 48f
4:24 9 10 mph 1009.7mb 48f
4:18 8 11 mph 1009.8mb 48f
3:54 11 14 mph 1009.7mb 48f
3:48 11 14 mph 1009.7mb 48f
3:42 10 13 mph 1009.8mb 48f
3:36 9 10 mph 1009.8mb 48f
3:30 7 11 mph 1009.8mb 48f
3:24 10 14 mph 1009.8mb 49f
3:18 13 15 mph 1009.8mb 49f
3:12 11 14 mph 1009.8mb 49f
3:06 11 14 mph 1009.8mb 49f
2:54 10 13 mph 1009.8mb 49f
2:48 11 13 mph 1009.9mb 49f
2:42 11 14 mph 1009.9mb 49f
2:36 11 14 mph 1009.8mb 49f
2:30 13 16 mph 1009.8mb 49f
2:24 14 16 mph 1009.7mb 49f
2:18 13 15 mph 1009.7mb 50f
2:12 13 15 mph 1009.7mb 50f
2:06 11 14 mph 1009.7mb 50f
1:54 11 15 mph 1009.7mb 50f
1:48 14 15 mph 1009.7mb 51f
1:42 13 16 mph 1009.7mb 51f
1:36 13 16 mph 1009.7mb 51f
1:30 14 17 mph 1009.7mb 50f
1:24 14 16 mph 1009.7mb 51f
1:18 14 17 mph 1009.7mb 51f
1:12 14 15 mph 1009.8mb 51f
1:06 14 17 mph 1009.8mb 51f
1:00 15 21 mph 1009.9mb 51f
12:54 17 20 mph 1009.8mb 51f
12:48 14 16 mph 1009.8mb 51f
12:42 13 16 mph 1009.9mb 50f
12:36 14 16 mph 1009.8mb 50f
12:30 14 17 mph 1009.9mb 50f
12:24 16 17 mph 1010mb 50f
12:18 15 16 mph 1010.1mb 50f
12:12 14 17 mph 1010.2mb 50f
12:06 13 14 mph 1010.3mb 50f
12:00 14 17 mph 1010.3mb 50f
11:54 14 17 mph 1010.5mb 50f
11:48 14 16 mph 1010.6mb 50f
11:42 14 16 mph 1010.7mb 49f
11:36 14 16 mph 1010.7mb 49f
11:30 14 16 mph 1010.8mb 49f
11:24 15 17 mph 1010.9mb 49f